Home   Weather   Rheda-Wiedenbrück   Past weeks

Flag for Germany Past Weather in Rheda-Wiedenbrück, North Rhine-Westphalia, Germany — Yesterday and Last 2 Weeks

Now
48 °F

Clear.


Feels Like: 44 °F
Forecast: 37 / 45 °F
Wind: 9 mph from South

Location: Paderborn / Lippstadt

Current Time: Dec 7, 2016 at 5:47:03 pm

Latest Report: Dec 7, 2016 at 4:50 pm


Visibility: 10 mi

Pressure: 30.42 "Hg

Humidity: 62%

Dew Point: 36 °F

Location of Rheda-WiedenbrückLocation

Past Weather in Rheda-Wiedenbrück — Graph

°F

Rheda-Wiedenbrück Temperature Yesterday

Maximum temperature yesterday: 41 °F (at 1:50 pm)
Minimum temperature yesterday: 21 °F (at 3:50 am)
Average temperature yesterday: 28 °F

High & Low Weather Summary for the Past Weeks

 TemperatureHumidityPressure
High57 °F (Nov 23, 12:50 pm)100% (Nov 27, 9:50 am)30.57 "Hg (Nov 27, 9:50 am)
Low18 °F (Nov 29, 6:50 am)28% (Nov 30, 11:50 am)29.89 "Hg (Nov 22, 4:20 pm)
Average35 °F79%30.26 "Hg
* Reported Nov 22 4:20 pm — Dec 7 4:20 pm, Rheda-Wiedenbrück, Weather by CustomWeather, © 2016

Note: Actual official high and low records may vary slightly from our data, if they occured in-between our weather recording intervals... More about our weather records

Advertising

Rheda-Wiedenbrück Weather History for the Previous 24 Hours

Scroll right to see more
 ConditionsComfort  
Time TempWeatherWind HumidityBarometerVisibility
4:20 pm
Wed, Dec 7
48 °FClear.8 mph62%30.42 "Hg10 mi
3:50 pm48 °FSunny.8 mph62%30.42 "Hg10 mi
3:20 pm48 °FSunny.9 mph62%30.42 "Hg10 mi
2:50 pm48 °FSunny.8 mph62%30.39 "Hg10 mi
2:20 pm48 °FSunny.9 mph62%30.39 "Hg10 mi
1:50 pm48 °FSunny.9 mph62%30.42 "Hg10 mi
1:20 pm48 °FSunny.8 mph58%30.42 "Hg10 mi
12:50 pm48 °FSunny.7 mph58%30.42 "Hg10 mi
12:20 pm48 °FSunny.8 mph58%30.42 "Hg10 mi
11:50 am48 °FSunny.7 mph58%30.42 "Hg10 mi
11:20 am46 °FSunny.9 mph62%30.45 "Hg10 mi
10:50 am39 °FSunny.5 mph75%30.45 "Hg10 mi
10:20 am41 °FSunny.2 mph66%30.45 "Hg10 mi
9:50 am46 °FSunny.12 mph57%30.42 "Hg10 mi
9:20 am45 °FSunny.13 mph57%30.42 "Hg10 mi
8:50 am45 °FSunny.14 mph57%30.42 "Hg10 mi
8:20 am45 °FSunny.13 mph57%30.42 "Hg10 mi
7:50 am43 °FClear.6 mph61%30.42 "Hg10 mi
7:20 am36 °FPassing clouds.9 mph75%30.42 "HgN/A
6:50 am32 °FClear.12 mph80%30.42 "Hg10 mi
6:20 am32 °FClear.2 mph87%30.42 "Hg10 mi
5:50 am30 °FClear.7 mph80%30.42 "Hg10 mi
5:20 am28 °FClear.12 mph86%30.45 "Hg10 mi
4:50 am28 °FClear.10 mph86%30.45 "Hg10 mi
4:20 am28 °FClear.8 mph86%30.45 "Hg10 mi
3:50 am28 °FClear.8 mph86%30.45 "Hg10 mi
3:20 am30 °FClear.9 mph86%30.45 "Hg10 mi
2:50 am28 °FClear.8 mph86%30.48 "Hg10 mi
2:20 am30 °FClear.8 mph80%30.45 "Hg10 mi
1:50 am28 °FClear.10 mph86%30.45 "Hg10 mi
1:20 am30 °FClear.2 mph86%30.45 "Hg10 mi
12:50 am28 °FClear.9 mph86%30.45 "Hg10 mi
12:20 am28 °FClear.9 mph86%30.48 "Hg10 mi
11:50 pm
Tue, Dec 6
30 °FClear.10 mph86%30.45 "Hg10 mi
11:20 pm28 °FClear.6 mph86%30.48 "Hg10 mi
10:50 pm28 °FClear.7 mph86%30.45 "Hg10 mi
10:20 pm28 °FClear.10 mph86%30.48 "Hg10 mi
9:50 pm27 °FClear.5 mph86%30.48 "Hg10 mi
9:20 pm30 °FClear.10 mph86%30.45 "Hg10 mi
8:50 pm30 °FClear.10 mph86%30.45 "Hg10 mi
8:20 pm27 °FPassing clouds.3 mph93%30.45 "HgN/A
7:50 pm28 °FClear.10 mph86%30.45 "Hg10 mi
6:50 pm28 °FPassing clouds.6 mph86%30.45 "HgN/A
6:20 pm30 °FPassing clouds.5 mph86%30.45 "HgN/A
5:50 pm30 °FClear.8 mph86%30.45 "Hg10 mi
5:20 pm30 °FClear.5 mph80%30.45 "Hg10 mi
Weather by CustomWeather, © 2016

See weather overviewHow to use our weather pages